Wind_Speed
10 16 17 17 18 18 20 17 16 14 13 11 10 10 7 10 16 19 18 13 14 18 7 6 8 10 10 12 12 13 14 15 21 21 15 17 11 15 17 17 14 13 16 4 4
23 14 14 17 18 19 20 19 16 15 13 12 10 7 7 6 10 16 15 16 14 12 11 9 11 12 15 14 10 14 13 20 17 15 16 14 12 13 9 16 18 15 14 6 3
21 21 15 14 18 17 17 22 16 15 14 13 10 7 7 8 12 12 19 14 10 11 11 13 9 11 16 12 17 15 18 15 17 11 11 17 17 17 17 16 16 18 17 13 7
20 22 20 16 16 18 16 19 18 16 13 12 10 10 8 14 5 8 14 17 15 12 13 12 13 14 11 11 15 17 16 23 20 11 12 15 18 19 22 23 22 18 19 15 12
22 22 22 15 16 17 18 16 19 16 13 11 10 11 12 9 9 6 5 7 13 17 15 14 14 15 11 9 12 13 16 17 15 17 20 21 22 21 22 22 20 21 17 18 19
24 23 22 21 19 16 17 16 20 16 13 11 10 11 11 11 7 12 5 5 8 19 16 13 5 11 7 10 10 2 12 17 15 18 19 20 23 23 21 25 28 28 27 27 26
25 23 24 24 20 16 15 17 20 16 14 11 10 9 10 13 5 7 9 6 8 15 15 11 9 4 6 7 11 10 14 14 19 20 14 12 19 23 32 29 30 29 28 28 30
25 25 26 23 24 21 16 16 21 20 15 14 10 6 7 16 8 7 9 8 9 10 7 8 9 6 6 0 4 6 10 10 6 5 15 14 16 12 7 13 19 29 28 30 29
28 24 26 23 25 20 21 13 27 22 17 15 10 8 8 10 12 14 12 10 10 10 9 7 6 5 6 9 8 10 9 12 9 6 7 13 11 5 5 16 20 17 19 22 24
26 28 25 21 21 19 21 16 21 22 21 15 9 5 11 9 12 13 14 13 12 16 13 6 4 8 10 10 6 7 13 10 9 3 8 15 20 19 22 23 22 23 24 25 24
26 24 26 22 18 15 14 17 13 13 28 12 11 4 12 12 11 12 18 17 12 13 7 8 5 12 16 15 16 8 10 12 12 8 14 18 21 20 23 26 28 29 28 29 31
23 21 18 15 17 12 12 14 8 5 8 16 5 8 12 13 9 14 20 14 16 12 12 5 14 15 11 9 11 12 14 15 14 13 12 17 27 23 24 28 29 29 32 34 33
22 20 17 13 17 12 13 22 12 13 3 17 14 14 13 11 8 21 23 14 14 14 16 11 2 2 12 11 11 14 14 14 14 15 18 20 26 20 12 16 22 27 31 35 37
21 18 17 18 10 10 10 13 20 12 3 8 10 10 11 9 5 17 21 12 6 14 13 12 11 5 8 12 11 12 10 11 11 9 7 4 10 10 11 10 10 16 21 22 24
22 22 21 14 16 10 9 8 15 8 5 15 12 10 17 12 19 15 20 6 10 7 8 4 5 12 12 13 10 6 4 4 7 10 14 16 8 9 11 19 19 17 15 15 17
22 23 19 20 16 11 12 7 17 3 5 6 7 11 16 15 7 19 18 7 3 7 11 11 4 7 9 6 10 3 2 5 6 4 8 14 15 19 15 13 15 13 19 16 16
28 33 33 35 35 10 6 12 5 5 8 8 9 13 17 12 11 13 16 11 8 6 10 10 16 6 9 7 6 9 3 2 4 6 8 6 8 18 20 20 22 15 20 21 26
30 29 19 19 28 25 14 4 3 7 8 8 15 17 9 15 11 15 15 12 14 10 5 7 6 18 13 13 5 13 11 5 6 9 13 17 10 14 15 20 31 21 23 17 19
29 17 14 4 22 25 8 6 4 12 12 15 17 11 7 16 8 12 14 12 14 14 7 5 3 2 7 6 11 6 8 16 13 17 12 12 20 23 24 25 23 21 23 22 19
28 12 11 15 20 18 2 2 4 6 18 18 7 7 8 18 9 12 14 14 11 18 12 0 2 6 8 6 11 12 1 2 4 6 12 13 19 15 13 19 10 11 11 15 9
14 5 8 15 18 3 2 1 1 16 13 3 9 10 10 15 12 14 15 5 17 13 15 7 3 5 4 10 10 9 12 6 7 8 7 12 14 11 10 7 5 1 8 9 11
5 2 9 10 2 2 0 1 10 10 3 3 4 4 15 18 11 12 9 3 8 11 11 9 2 5 12 12 12 14 15 17 8 8 8 13 21 13 16 16 13 8 14 15 17
4 3 6 6 2 2 1 2 4 9 6 5 4 2 6 12 6 7 6 6 10 12 11 10 4 3 3 2 8 11 18 17 18 15 21 14 14 3 3 6 7 16 20 21 18
5 3 4 5 4 6 3 3 5 3 5 4 8 8 10 10 3 9 6 4 11 12 7 8 5 8 8 8 11 8 15 17 15 10 19 22 29 24 22 17 15 20 18 15 19
3 3 2 3 2 4 5 8 6 3 2 3 4 3 5 4 5 4 6 5 5 9 6 5 5 9 18 22 20 20 23 23 19 18 16 28 23 21 19 20 19 23 15 18 13
6 4 4 1 8 6 1 7 7 5 2 2 2 6 4 4 1 5 6 7 6 9 11 4 4 2 14 20 21 18 23 18 18 18 15 24 29 23 23 9 8 14 16 12 17
11 8 2 3 6 5 2 5 4 5 3 4 2 5 4 3 3 3 3 4 1 3 10 4 1 2 6 11 20 9 5 6 7 10 11 12 19 20 17 9 12 19 18 21 21
Wind_Direction
322 334 317 294 287 284 277 286 303 304 286 276 267 265 260 255 226 221 220 218 229 238 214 213 200 210 200 212 220 235 250 237 240 245 250 259 254 234 247 261 235 230 241 75 112
281 304 331 317 283 284 275 270 290 299 282 274 260 255 255 225 200 221 215 219 229 224 211 205 204 203 205 202 206 224 227 238 250 259 258 261 219 231 216 235 240 228 232 238 232
330 293 285 313 291 279 279 259 276 287 276 268 252 224 229 185 216 239 223 220 207 201 203 221 225 208 223 209 208 224 243 241 242 279 286 276 255 244 261 252 234 229 226 214 235
330 325 308 290 297 273 278 259 268 277 269 263 247 212 217 192 233 199 220 215 213 190 196 201 208 211 223 204 219 239 252 253 267 278 249 255 260 257 247 250 255 250 251 249 239
333 328 320 290 286 275 270 265 253 269 262 255 244 216 212 225 224 219 185 196 199 193 191 195 208 215 222 217 227 239 255 253 250 262 257 262 261 262 259 253 251 256 252 252 245
329 326 319 317 274 278 259 264 247 259 255 243 235 209 210 247 233 214 186 187 189 191 189 197 226 231 281 239 221 309 264 265 257 257 251 256 260 258 251 252 255 254 251 249 248
324 319 313 311 297 275 265 255 244 243 247 226 223 199 226 226 208 211 209 191 159 189 182 194 205 219 239 241 236 261 266 265 249 242 237 258 262 252 253 253 255 251 248 249 248
317 315 310 307 304 267 270 242 233 230 231 213 209 197 243 218 208 194 182 173 146 158 179 201 212 252 242 78 215 240 242 253 112 231 238 226 260 263 243 232 258 246 247 250 248
311 308 300 294 298 288 266 245 232 215 210 205 189 200 234 237 209 197 180 171 149 135 137 141 167 219 208 232 226 218 257 220 262 215 252 215 267 272 240 267 256 259 253 249 249
310 303 304 293 291 281 256 240 215 192 185 177 179 197 223 206 180 177 174 172 152 137 122 143 191 236 217 214 221 236 221 254 259 174 236 267 269 270 271 271 260 259 261 259 253
307 310 307 298 301 280 269 241 175 182 181 176 196 196 149 150 140 169 171 168 170 165 154 179 208 221 228 223 257 297 294 276 276 291 285 278 276 275 273 266 261 258 258 257 254
314 313 318 299 301 286 265 250 258 142 173 213 198 175 163 154 131 156 164 167 185 188 182 153 232 243 251 269 247 255 261 267 279 281 291 290 283 285 272 263 261 259 256 256 256
318 319 314 312 305 285 255 250 232 175 185 195 192 174 163 174 159 172 175 188 194 195 193 207 150 286 231 230 238 244 258 274 280 307 293 280 285 259 257 245 250 256 255 254 253
319 320 316 299 319 321 299 246 241 218 150 147 192 208 183 180 156 171 174 167 194 203 197 230 226 200 219 233 232 264 273 264 282 290 272 99 292 289 290 283 272 260 257 253 253
319 314 313 301 304 306 308 225 226 174 216 152 151 165 170 178 130 176 174 186 178 182 178 177 202 209 225 236 231 237 42 290 284 279 295 260 249 266 289 286 267 258 249 259 244
312 309 296 282 277 268 282 254 165 207 191 161 134 165 164 186 140 152 177 211 214 207 220 260 152 219 225 227 222 65 243 277 277 287 259 252 233 276 266 286 315 292 291 275 252
321 309 281 266 250 235 258 142 129 255 164 145 161 161 166 178 155 172 180 180 176 167 218 231 234 217 233 215 205 223 198 244 221 203 246 304 258 247 275 291 291 279 280 287 293
332 337 316 268 231 231 212 184 234 143 157 161 137 148 165 170 187 180 178 193 211 222 165 201 192 194 191 214 185 210 202 226 266 259 294 306 258 254 264 304 301 290 269 268 277
336 357 2 96 157 160 158 169 231 158 137 143 133 143 158 193 143 182 196 204 203 203 206 188 246 178 168 192 221 178 217 250 289 279 273 259 269 276 266 271 268 263 278 276 272
3 12 52 104 139 154 185 118 255 132 133 138 132 180 158 189 157 189 187 200 203 204 223 87 250 178 181 217 225 220 104 187 200 271 269 261 275 266 284 272 248 246 296 266 277
2 52 96 121 147 118 195 312 136 137 125 118 139 158 165 177 193 188 186 133 197 190 193 196 227 136 149 208 207 200 234 215 279 251 276 286 265 285 321 8 331 319 294 301 298
13 90 138 135 83 238 93 24 120 122 15 71 156 160 162 177 182 188 179 83 180 173 187 202 184 244 241 243 227 259 220 224 231 233 242 263 269 280 245 257 264 254 283 277 300
65 70 149 165 157 131 33 307 151 158 188 157 145 178 140 163 174 190 190 114 173 176 169 165 211 284 229 172 243 242 245 248 239 263 253 263 261 28 359 305 246 267 285 300 303
107 125 115 250 277 130 122 29 107 91 80 91 111 130 140 169 26 178 156 156 184 201 81 183 220 237 267 300 319 257 257 260 256 247 260 247 266 269 272 266 265 277 288 294 299
65 80 85 147 182 161 172 159 145 129 74 140 125 164 161 153 180 164 172 150 174 187 180 216 241 259 266 276 280 273 273 270 259 256 252 271 278 284 303 305 297 290 285 300 302
58 27 13 140 179 173 146 138 141 116 168 174 197 158 156 151 144 167 198 210 215 173 203 213 263 311 279 268 260 270 278 279 266 255 252 260 265 278 276 283 317 332 309 294 314
37 35 297 323 214 205 111 128 125 138 56 45 108 150 161 57 9 360 262 307 5 197 198 201 260 287 270 316 310 274 273 266 263 249 260 262 262 270 280 322 325 315 299 299 299
Height
1485 1483 1481 1480 1479 1479 1477 1478 1477 1475 1474 1473 1472 1473 1473 1473 1474 1475 1476 1480 1481 1481 1483 1487 1486 1489 1489 1490 1491 1495 1488 1480 1477 1474 1472 1472 1472 1478 1480 1480 1479 1481 1482 1482 1482
1481 1480 1478 1477 1475 1475 1475 1475 1475 1472 1472 1471 1470 1471 1472 1472 1475 1474 1475 1475 1476 1478 1483 1485 1485 1487 1487 1485 1490 1490 1484 1476 1471 1468 1469 1473 1475 1475 1479 1479 1478 1479 1480 1482 1483
1478 1475 1475 1473 1472 1471 1470 1471 1471 1471 1470 1469 1468 1470 1471 1473 1475 1472 1472 1472 1474 1476 1480 1484 1484 1485 1484 1483 1484 1485 1480 1473 1471 1476 1475 1476 1474 1476 1477 1477 1475 1476 1476 1479 1482
1477 1473 1471 1470 1469 1468 1468 1468 1468 1468 1467 1466 1466 1468 1470 1471 1471 1467 1468 1469 1471 1475 1480 1482 1483 1484 1483 1477 1480 1481 1478 1477 1474 1475 1479 1479 1477 1474 1475 1476 1476 1475 1476 1476 1479
1474 1471 1467 1465 1463 1463 1463 1463 1463 1465 1464 1464 1464 1466 1469 1466 1466 1466 1467 1467 1469 1472 1477 1479 1481 1480 1478 1474 1477 1477 1479 1475 1477 1478 1478 1480 1476 1474 1473 1475 1474 1474 1475 1476 1478
1470 1467 1464 1460 1458 1457 1457 1459 1459 1461 1461 1462 1463 1465 1467 1468 1464 1465 1467 1468 1469 1471 1474 1478 1479 1479 1478 1475 1477 1475 1478 1476 1474 1475 1477 1477 1472 1473 1470 1470 1471 1471 1471 1473 1474
1466 1463 1459 1456 1453 1452 1452 1454 1455 1456 1458 1459 1462 1463 1465 1465 1463 1463 1465 1468 1468 1469 1473 1476 1479 1481 1479 1479 1477 1479 1479 1473 1470 1471 1473 1473 1468 1464 1463 1466 1464 1464 1465 1467 1467
1462 1458 1454 1451 1448 1447 1447 1448 1450 1452 1455 1458 1461 1463 1461 1458 1461 1461 1466 1468 1468 1469 1473 1476 1479 1482 1481 1481 1478 1478 1475 1470 1456 1464 1466 1471 1463 1453 1456 1456 1456 1456 1458 1459 1460
1457 1453 1449 1447 1444 1442 1441 1442 1444 1445 1452 1457 1459 1461 1458 1454 1457 1462 1465 1467 1467 1469 1472 1476 1480 1481 1483 1480 1474 1471 1465 1460 1459 1459 1463 1464 1453 1447 1452 1452 1450 1452 1452 1452 1453
1452 1447 1443 1441 1438 1437 1437 1438 1441 1441 1449 1454 1456 1462 1455 1452 1455 1458 1462 1466 1467 1469 1472 1478 1480 1479 1478 1474 1465 1460 1466 1461 1460 1456 1461 1459 1452 1448 1449 1449 1448 1448 1448 1447 1447
1446 1443 1439 1436 1434 1433 1434 1436 1440 1440 1440 1441 1443 1445 1447 1451 1453 1457 1461 1465 1468 1468 1469 1478 1481 1474 1466 1466 1462 1463 1467 1462 1455 1455 1460 1457 1448 1445 1443 1442 1441 1441 1441 1442 1442
1442 1439 1435 1433 1431 1430 1431 1430 1428 1433 1437 1439 1442 1445 1448 1448 1452 1456 1459 1463 1465 1464 1468 1480 1476 1468 1466 1467 1467 1468 1468 1464 1459 1457 1460 1455 1439 1439 1435 1429 1431 1433 1433 1434 1434
1438 1435 1432 1430 1428 1427 1427 1425 1428 1431 1430 1436 1441 1443 1446 1449 1448 1452 1457 1460 1461 1461 1465 1466 1462 1468 1467 1470 1471 1466 1466 1464 1463 1460 1460 1457 1433 1419 1416 1419 1422 1423 1424 1425 1425
1435 1432 1429 1428 1428 1424 1424 1423 1428 1430 1435 1432 1438 1440 1444 1446 1447 1451 1456 1461 1461 1459 1464 1464 1461 1468 1468 1469 1467 1466 1459 1462 1467 1471 1463 1458 1440 1423 1414 1412 1414 1415 1416 1415 1417
1431 1428 1426 1425 1424 1424 1423 1421 1427 1431 1411 1428 1433 1437 1440 1442 1444 1452 1456 1460 1458 1458 1463 1461 1465 1466 1468 1464 1465 1466 1469 1470 1471 1472 1471 1456 1463 1417 1411 1411 1406 1405 1409 1409 1410
1426 1423 1421 1421 1421 1423 1423 1422 1426 1431 1406 1425 1428 1432 1437 1439 1444 1450 1456 1460 1459 1460 1462 1459 1464 1465 1462 1464 1466 1469 1470 1474 1475 1481 1473 1447 1444 1415 1408 1401 1404 1401 1404 1405 1405
1419 1413 1407 1409 1408 1421 1421 1423 1425 1416 1417 1422 1423 1428 1434 1439 1443 1448 1451 1455 1455 1466 1464 1461 1459 1463 1464 1465 1467 1470 1476 1467 1469 1474 1449 1421 1429 1411 1396 1399 1401 1403 1402 1402 1402
1410 1402 1395 1391 1399 1415 1421 1422 1405 1401 1404 1412 1421 1428 1433 1438 1440 1443 1448 1452 1450 1449 1451 1459 1452 1456 1461 1461 1459 1468 1468 1459 1449 1434 1424 1417 1419 1402 1396 1395 1399 1397 1398 1397 1399
1404 1397 1395 1390 1396 1410 1420 1414 1405 1396 1401 1409 1422 1428 1432 1436 1437 1440 1441 1444 1443 1447 1452 1449 1453 1451 1455 1457 1460 1461 1467 1460 1462 1452 1452 1422 1406 1399 1392 1392 1388 1391 1395 1393 1393
1403 1399 1401 1400 1406 1413 1416 1407 1409 1395 1399 1406 1413 1419 1427 1431 1435 1435 1439 1434 1441 1442 1445 1446 1451 1449 1452 1458 1457 1457 1458 1468 1471 1457 1433 1405 1400 1389 1388 1385 1383 1385 1389 1389 1388
1404 1405 1408 1409 1412 1415 1411 1410 1406 1400 1401 1405 1408 1412 1417 1425 1424 1431 1432 1431 1433 1436 1443 1446 1449 1453 1457 1454 1445 1457 1459 1465 1455 1448 1435 1421 1394 1384 1387 1387 1387 1389 1390 1392 1391
1405 1407 1411 1413 1416 1415 1411 1410 1408 1406 1408 1408 1408 1407 1410 1417 1420 1421 1423 1428 1434 1437 1442 1445 1449 1450 1443 1439 1440 1441 1446 1450 1452 1435 1436 1425 1392 1388 1386 1387 1387 1388 1389 1387 1387
1408 1411 1412 1415 1414 1412 1415 1411 1408 1414 1413 1411 1412 1411 1412 1415 1422 1421 1425 1432 1436 1437 1438 1443 1450 1447 1436 1434 1433 1437 1434 1433 1434 1437 1424 1425 1390 1381 1387 1387 1386 1384 1382 1382 1384
1410 1413 1417 1416 1412 1408 1413 1413 1412 1415 1413 1413 1413 1414 1415 1417 1420 1423 1429 1434 1436 1437 1439 1441 1440 1443 1429 1425 1429 1440 1434 1430 1435 1425 1407 1396 1388 1384 1382 1381 1381 1381 1380 1381 1383
1410 1413 1415 1415 1415 1413 1413 1414 1415 1414 1414 1413 1415 1414 1414 1418 1422 1424 1427 1432 1436 1438 1441 1443 1445 1441 1434 1429 1428 1425 1421 1418 1424 1417 1414 1380 1387 1378 1379 1378 1378 1377 1377 1379 1379
1414 1416 1415 1414 1411 1410 1412 1412 1413 1416 1415 1415 1413 1416 1417 1417 1420 1423 1425 1428 1429 1436 1439 1441 1440 1441 1435 1424 1420 1416 1407 1407 1405 1404 1402 1399 1386 1382 1379 1377 1378 1380 1380 1380 1379
1419 1419 1420 1420 1413 1411 1412 1414 1415 1417 1420 1419 1418 1418 1420 1423 1425 1426 1427 1428 1429 1429 1434 1439 1443 1443 1421 1411 1409 1405 1401 1402 1400 1397 1395 1387 1379 1377 1373 1374 1380 1381 1380 1377 1375